Change the Weather History Date:

Saturday, September 8, 2012

  Actual Average Record
Temperature  
Mean Temperature 84 °F -  
Max Temperature 91 °F 97 °F 105 °F (2011)
Min Temperature 77 °F 76 °F 69 °F (2014)
Cooling Degree Days 19    
Growing Degree Days 34 (Base 50)    
Moisture  
Dew Point 65 °F    
Average Humidity 56    
Maximum Humidity 82    
Minimum Humidity 34    
Precipitation  
Precipitation 0.00 in - - ()
Sea Level Pressure  
Sea Level Pressure 29.86 in    
Wind  
Wind Speed 6 mph (ESE)    
Max Wind Speed 20 mph    
Max Gust Speed 25 mph    
Visibility 9 miles    
Events      
Averages and records for this station are not official NWS values.
T = Trace of Precipitation, MM = Missing Value Source: NWS Daily Summary

Daily Weather History Graph

Daily Weather History Graph

Search for Another Location

Airport or City:

Trip Planner

Search our weather history database for the weather conditions in past years. The results will help you decide how hot, cold, wet, or windy it might be!

Date:

Astronomy

Sep. 08, 2012 Rise Set
Actual Time 6:07 AM MST 6:43 PM MST
Civil Twilight 5:42 AM MST 7:08 PM MST
Nautical Twilight 5:12 AM MST 7:38 PM MST
Astronomical Twilight 4:42 AM MST 8:08 PM MST
Moon 11:52 PM MST (9/8) 1:31 PM MST (9/8)
Length of Visible Light 13h 26m
Length of Day
12h 36m
Waning Gibbous, 48% of the Moon is Illuminated
Sep 8
Waning Gibbous
Sep 15
New
Sep 22
First Quarter
Sep 29
Full
Oct 8
Last Quarter

Hourly Weather History & Observations

Time (MST) Temp. Heat Index Dew Point Humidity Pressure Visibility Wind Dir Wind Speed Gust Speed Precip Events Conditions
12:53 AM 78.1 °F - 72.0 °F 81% 29.85 in 8.0 mi Calm Calm - N/A   Clear
1:53 AM 78.1 °F - 72.0 °F 81% 29.85 in 7.0 mi ESE 5.8 mph - N/A   Clear
2:53 AM 77.0 °F - 71.1 °F 82% 29.86 in 8.0 mi East 4.6 mph - N/A   Clear
3:53 AM 77.0 °F - 70.0 °F 79% 29.86 in 10.0 mi East 4.6 mph - N/A   Clear
4:53 AM 77.0 °F - 70.0 °F 79% 29.87 in 10.0 mi East 6.9 mph - N/A   Clear
5:53 AM 77.0 °F - 71.1 °F 82% 29.88 in 8.0 mi East 3.5 mph - N/A   Clear
6:53 AM 78.1 °F - 70.0 °F 76% 29.89 in 7.0 mi NE 3.5 mph - N/A   Clear
7:53 AM 79.0 °F - 71.1 °F 77% 29.90 in 7.0 mi Calm Calm - N/A   Clear
8:53 AM 82.0 °F 86.7 °F 72.0 °F 71% 29.91 in 10.0 mi Calm Calm - N/A   Clear
9:53 AM 86.0 °F 90.1 °F 69.1 °F 57% 29.91 in 10.0 mi South 3.5 mph - N/A   Clear
10:53 AM 89.1 °F 90.3 °F 64.0 °F 43% 29.90 in 10.0 mi East 15.0 mph 20.7 mph N/A   Clear
11:53 AM 91.9 °F 93.3 °F 64.0 °F 39% 29.88 in 10.0 mi East 16.1 mph 23.0 mph N/A   Clear
1:53 PM 91.0 °F 91.5 °F 62.1 °F 38% 29.84 in 10.0 mi ESE 19.6 mph 25.3 mph N/A   Clear
2:53 PM 89.1 °F 90.0 °F 63.0 °F 42% 29.83 in 10.0 mi ESE 10.4 mph - N/A   Clear
3:53 PM 91.9 °F 92.5 °F 62.1 °F 37% 29.80 in 10.0 mi SE 13.8 mph - N/A   Clear
4:53 PM 91.9 °F 92.5 °F 62.1 °F 37% 29.80 in 10.0 mi SE 9.2 mph - N/A   Clear
5:53 PM 91.0 °F 90.2 °F 59.0 °F 34% 29.82 in 10.0 mi ESE 12.7 mph 20.7 mph N/A   Clear
6:53 PM 88.0 °F 87.1 °F 59.0 °F 37% 29.82 in 10.0 mi East 6.9 mph - N/A   Clear
8:53 PM 86.0 °F 85.4 °F 59.0 °F 40% 29.87 in 10.0 mi East 6.9 mph - N/A   Clear
9:53 PM 84.9 °F 84.4 °F 59.0 °F 41% 29.88 in 10.0 mi East 6.9 mph - N/A   Clear
10:53 PM 84.0 °F 83.8 °F 59.0 °F 43% 29.88 in 10.0 mi East 8.1 mph - N/A   Clear
11:53 PM 82.9 °F 82.8 °F 59.0 °F 44% 29.88 in 10.0 mi East 5.8 mph - N/A   Clear